Gogerbank, United Kingdom

11:38 AM GMT on December 05, 2016 (GMT +0000)
Edinburgh Airport

Weather History for EGPH - May, 2013

Change the Weather History Date:

Monday, May 6, 2013

  Actual Average Record
Temperature  
Mean Temperature 53 °F -  
Max Temperature 60 °F 55 °F 64 °F (2006)
Min Temperature 44 °F 40 °F 28 °F (1997)
Degree Days  
Heating Degree Days 12    
Growing Degree Days 3 (Base 50)    
Moisture  
Dew Point 47 °F    
Average Humidity 78    
Maximum Humidity 93    
Minimum Humidity 67    
Precipitation  
Precipitation 0.00 in - - ()
Sea Level Pressure  
Sea Level Pressure 30.02 in    
Wind  
Wind Speed 11 mph ()    
Max Wind Speed 21 mph    
Max Gust Speed -    
Visibility 6.2 miles    
Events      
Averages and records for this station are not official NWS values.
T = Trace of Precipitation, MM = Missing Value Source: Averaged Metar Reports

Daily Weather History Graph

Daily Weather History Graph

Search for Another Location

Airport or City:

Trip Planner

Search our weather history database for the weather conditions in past years. The results will help you decide how hot, cold, wet, or windy it might be!

Date:

Astronomy

May. 06, 2013 Rise Set
Actual Time 5:18 AM BST 9:02 PM BST
Civil Twilight 4:32 AM BST 9:49 PM BST
Nautical Twilight 3:26 AM BST 10:55 PM BST
Astronomical Twilight 1:42 AM BST 12:37 AM BST
Moon 3:51 AM BST (5/6) 5:15 PM BST (5/6)
Length of Visible Light 17h 16m
Length of Day
15h 44m
Waning Crescent, 12% of the Moon is Illuminated
May 6
Waning Crescent
May 10
New
May 18
First Quarter
May 25
Full
May 31
Last Quarter

Hourly Weather History & Observations

Time (BST) Temp. Windchill Dew Point Humidity Pressure Visibility Wind Dir Wind Speed Gust Speed Precip Events Conditions
12:20 AM 51.8 °F - 46.4 °F 82% 30.04 in 6.2 mi SW 12.7 mph - N/A   Mostly Cloudy
12:50 AM 51.8 °F - 46.4 °F 82% 30.01 in - SW 11.5 mph - N/A   Clear
1:20 AM 51.8 °F - 46.4 °F 82% 30.01 in 6.2 mi SW 10.4 mph - N/A   Overcast
1:50 AM 51.8 °F - 46.4 °F 82% 30.01 in 6.2 mi SW 10.4 mph - N/A   Partly Cloudy
2:20 AM 50.0 °F - 46.4 °F 87% 30.01 in 6.2 mi SW 10.4 mph - N/A   Unknown
2:50 AM 50.0 °F - 46.4 °F 87% 30.01 in 6.2 mi SW 12.7 mph - N/A   Unknown
3:20 AM 50.0 °F - 46.4 °F 87% 30.01 in 6.2 mi SW 10.4 mph - N/A   Unknown
3:50 AM 51.8 °F - 46.4 °F 82% 30.01 in 6.2 mi SW 11.5 mph - N/A   Unknown
4:20 AM 51.8 °F - 46.4 °F 82% 30.01 in 6.2 mi SSW 11.5 mph - N/A   Unknown
4:50 AM 50.0 °F - 46.4 °F 87% 30.01 in 6.2 mi SW 9.2 mph - N/A   Scattered Clouds
5:20 AM 50.0 °F - 46.4 °F 87% 30.01 in 6.2 mi SW 6.9 mph - N/A   Mostly Cloudy
5:50 AM 51.8 °F - 46.4 °F 82% 30.01 in 6.2 mi SW 6.9 mph - N/A   Overcast
6:20 AM 51.8 °F - 46.4 °F 82% 30.01 in 6.2 mi SW 12.7 mph - N/A   Overcast
6:50 AM 51.8 °F - 46.4 °F 82% 30.01 in 6.2 mi WSW 6.9 mph - N/A   Overcast
7:20 AM 51.8 °F - 46.4 °F 82% 30.01 in 6.2 mi WSW 6.9 mph - N/A   Scattered Clouds
7:50 AM 53.6 °F - 46.4 °F 77% 30.01 in 6.2 mi WSW 8.1 mph - N/A   Scattered Clouds
8:20 AM 53.6 °F - 48.2 °F 82% 30.01 in 6.2 mi SW 13.8 mph - N/A   Scattered Clouds
8:50 AM 53.6 °F - 46.4 °F 77% 30.01 in 6.2 mi SW 17.3 mph - N/A   Scattered Clouds
9:20 AM 53.6 °F - 46.4 °F 77% 30.01 in 6.2 mi SSW 20.7 mph - N/A   Mostly Cloudy
9:50 AM 53.6 °F - 46.4 °F 77% 30.01 in 6.2 mi SW 17.3 mph - N/A   Mostly Cloudy
10:20 AM 53.6 °F - 46.4 °F 77% 30.01 in 6.2 mi SW 19.6 mph - N/A   Mostly Cloudy
10:50 AM 57.2 °F - 48.2 °F 72% 30.04 in 6.2 mi SW 17.3 mph - N/A   Mostly Cloudy
11:20 AM 57.2 °F - 48.2 °F 72% 30.04 in 6.2 mi SW 18.4 mph - N/A   Mostly Cloudy
11:50 AM 59.0 °F - 48.2 °F 67% 30.04 in 6.2 mi SW 18.4 mph - N/A   Mostly Cloudy
12:20 PM 57.2 °F - 48.2 °F 72% 30.04 in 6.2 mi SW 19.6 mph - N/A   Mostly Cloudy
12:50 PM 60.8 °F - 50.0 °F 68% 30.04 in 6.2 mi SW 16.1 mph - N/A   Mostly Cloudy
1:20 PM 59.0 °F - 50.0 °F 72% 30.04 in 6.2 mi SW 17.3 mph - N/A   Mostly Cloudy
1:50 PM 59.0 °F - 48.2 °F 67% 30.04 in 6.2 mi SSW 16.1 mph - N/A   Mostly Cloudy
2:20 PM 59.0 °F - 50.0 °F 72% 30.04 in 6.2 mi WSW 17.3 mph - N/A   Mostly Cloudy
2:50 PM 59.0 °F - 50.0 °F 72% 30.01 in 6.2 mi SW 15.0 mph - N/A   Mostly Cloudy
3:20 PM 59.0 °F - 50.0 °F 72% 30.01 in 6.2 mi SW 17.3 mph - N/A   Mostly Cloudy
3:50 PM 59.0 °F - 50.0 °F 72% 30.01 in 6.2 mi SW 17.3 mph - N/A   Mostly Cloudy
4:20 PM 59.0 °F - 50.0 °F 72% 30.01 in 6.2 mi SW 17.3 mph - N/A   Mostly Cloudy
4:50 PM 59.0 °F - 48.2 °F 67% 30.01 in 6.2 mi SW 17.3 mph - N/A   Mostly Cloudy
5:20 PM 57.2 °F - 50.0 °F 77% 30.01 in 6.2 mi SW 15.0 mph - N/A   Scattered Clouds
5:50 PM 57.2 °F - 48.2 °F 72% 30.01 in 6.2 mi SW 16.1 mph - N/A   Scattered Clouds
6:20 PM 57.2 °F - 48.2 °F 72% 30.01 in 6.2 mi SW 13.8 mph - N/A   Scattered Clouds
6:50 PM 55.4 °F - 48.2 °F 77% 30.01 in 6.2 mi SW 12.7 mph - N/A   Scattered Clouds
7:20 PM 57.2 °F - 48.2 °F 72% 30.01 in 6.2 mi SW 11.5 mph - N/A   Scattered Clouds
7:50 PM 55.4 °F - 48.2 °F 77% 30.04 in 6.2 mi SW 11.5 mph - N/A   Scattered Clouds
8:20 PM 55.4 °F - 46.4 °F 72% 30.04 in 6.2 mi SW 11.5 mph - N/A   Partly Cloudy
8:50 PM 51.8 °F - 46.4 °F 82% 30.04 in 6.2 mi WSW 8.1 mph - N/A   Partly Cloudy
9:20 PM 50.0 °F - 44.6 °F 82% 30.04 in 6.2 mi West 4.6 mph - N/A   Partly Cloudy
9:50 PM 50.0 °F - 46.4 °F 87% 30.04 in 6.2 mi Variable 3.5 mph - N/A   Partly Cloudy
10:20 PM 50.0 °F - 46.4 °F 87% 30.04 in 6.2 mi WSW 3.5 mph - N/A   Partly Cloudy
10:50 PM 50.0 °F - 44.6 °F 82% 30.04 in - West 3.5 mph - N/A   Clear
11:20 PM 46.4 °F - 42.8 °F 87% 30.04 in - Variable 2.3 mph - N/A   Clear
11:50 PM 44.6 °F 41.4 °F 42.8 °F 93% 30.06 in - SW 5.8 mph - N/A   Clear